Wind_Speed
13 12 12 11 11 11 11 10 9 8 7 7 7 8 8 9 9 10 11 12 13 14 15 16 17 17 17 17 18 19 19 20 21 22 22 23 23 24 25 25 26 27 28
13 13 13 12 11 11 11 11 10 9 9 9 9 9 10 11 11 11 12 12 14 14 15 16 17 17 18 19 19 20 21 22 22 23 24 25 25 26 26 27 27 28 29
13 14 13 13 12 12 12 12 11 11 11 11 11 10 11 12 13 12 13 14 15 15 16 17 18 19 19 20 20 21 23 24 24 24 25 25 26 27 27 28 29 29 30
13 14 15 14 14 13 13 13 12 12 11 12 11 12 12 13 13 14 15 15 15 16 16 17 18 19 21 21 22 23 24 25 25 26 26 27 27 28 29 30 31 31 32
14 14 15 15 15 15 14 13 13 13 13 13 13 13 14 14 15 16 16 16 17 17 17 18 19 20 22 23 24 24 25 25 25 26 27 28 29 29 30 31 31 32 32
15 15 16 16 16 16 15 14 14 14 14 14 14 15 15 15 16 17 18 18 19 18 18 19 20 21 22 23 24 24 25 26 27 28 29 29 29 31 31 31 32 32 33
16 16 17 17 17 17 16 16 15 15 15 16 16 16 17 17 17 18 18 19 19 20 20 21 22 23 24 25 25 25 25 27 28 28 29 29 30 30 31 32 32 33 33
17 18 18 18 18 18 18 17 17 16 16 17 17 17 17 17 17 17 18 18 19 20 21 22 23 24 24 25 25 26 26 27 27 27 28 29 29 30 31 32 34 34 35
19 19 19 19 19 19 19 19 18 18 18 18 18 18 18 18 19 19 20 20 21 22 23 24 24 25 25 25 26 26 26 27 27 28 29 30 30 31 32 33 33 34 35
20 20 20 20 20 21 20 20 20 20 19 19 19 19 19 19 20 21 21 22 23 23 24 25 25 25 25 26 26 26 27 27 28 29 29 29 30 31 32 33 34 35 35
21 21 21 21 23 22 22 22 22 21 21 21 21 21 21 21 21 22 22 23 23 24 25 25 25 26 26 26 27 27 27 28 29 29 30 30 30 31 31 32 33 34 34
23 23 22 23 23 23 23 23 23 22 22 22 22 22 22 22 22 23 24 24 24 24 25 25 26 26 26 27 27 28 29 29 30 30 31 31 32 32 32 33 33 34 34
25 25 24 24 24 24 24 24 24 23 22 23 23 23 23 24 24 24 25 25 25 25 25 26 26 26 27 27 28 29 29 30 31 31 32 32 33 32 32 32 32 33 33
27 27 27 26 26 26 26 25 24 24 23 24 24 24 25 25 26 26 26 26 26 26 26 26 26 27 27 27 28 29 30 31 31 32 32 32 32 32 31 31 32 32 33
28 28 28 28 28 27 26 25 25 24 24 25 25 25 25 26 27 27 26 26 26 27 27 27 27 27 27 28 28 29 30 31 31 31 32 32 32 31 31 31 31 32 32
29 29 29 28 28 27 26 26 25 25 25 25 25 26 26 26 26 26 26 26 26 26 27 27 27 28 28 29 29 30 30 30 31 31 31 31 31 30 30 30 30 29 29
28 29 29 28 28 27 26 26 26 25 26 26 26 27 27 27 27 26 26 26 26 26 27 27 28 28 29 29 30 30 30 31 31 31 30 30 29 29 29 29 29 28 28
28 28 28 28 28 27 27 27 27 27 27 27 28 28 28 27 27 26 26 26 27 27 27 27 28 28 29 29 30 30 31 31 31 30 30 29 28 28 28 28 28 28 29
28 28 27 28 28 28 27 27 27 28 28 28 28 28 27 27 27 26 26 27 27 27 27 27 28 28 29 29 30 30 30 30 30 29 29 28 28 28 28 28 29 29 29
28 27 27 28 28 28 27 28 28 28 29 29 28 28 27 27 27 26 27 27 27 27 27 28 28 28 29 29 29 29 29 29 29 28 28 28 28 28 28 29 29 29 28
28 27 27 28 28 27 27 28 28 28 28 28 28 27 27 27 26 26 27 28 28 28 28 28 28 28 29 28 29 29 28 28 28 27 27 28 28 28 29 29 28 28 27
28 27 27 27 27 27 27 27 27 27 27 27 27 26 26 26 26 27 27 28 28 27 27 28 27 28 28 28 28 28 28 28 27 28 28 28 28 28 28 28 27 26 26
27 26 26 26 25 26 26 27 26 26 26 26 25 25 26 26 26 26 27 27 26 26 27 27 27 27 27 27 27 27 27 27 28 28 28 28 28 28 27 26 25 25 25
26 26 26 26 26 26 26 26 26 25 25 25 25 26 26 26 26 26 26 26 26 26 27 27 27 27 27 27 27 27 27 27 27 27 28 28 27 27 26 26 26 25 25
26 25 25 24 25 25 25 25 25 25 25 25 26 26 26 26 25 25 25 26 26 27 27 27 27 26 26 26 27 27 27 27 28 28 28 28 27 27 26 26 26 26 26
25 24 23 24 24 24 24 24 25 25 25 25 25 25 25 25 26 26 26 27 27 27 27 26 26 26 26 26 27 28 28 28 28 29 28 28 27 27 27 27 27 27 27
Wind_Direction
358 355 352 350 348 349 348 344 337 337 331 322 312 307 301 296 292 287 283 283 283 284 284 284 284 282 283 285 285 285 285 285 284 282 281 282 282 282 284 284 284 282 282
352 352 352 349 347 343 341 337 334 330 325 319 312 305 300 297 293 289 287 288 288 288 288 286 284 284 285 287 288 287 287 288 287 286 283 283 285 285 285 285 284 283 283
347 349 348 348 345 340 336 331 330 324 319 315 312 309 305 302 298 295 293 292 291 290 289 289 287 285 286 288 289 289 288 289 288 288 286 285 285 286 286 286 286 285 284
343 344 344 340 337 335 332 328 324 319 317 315 309 307 303 302 302 299 297 294 294 294 293 293 291 288 288 288 289 290 290 289 289 288 286 286 286 286 286 286 286 286 284
336 337 339 338 335 330 327 323 320 318 316 314 310 306 303 301 300 297 295 296 296 296 294 295 297 294 291 291 290 290 290 290 291 290 288 286 287 287 288 287 286 286 285
328 331 332 335 337 332 326 322 318 318 316 311 310 308 303 301 299 297 295 296 298 298 297 297 297 297 296 295 293 292 291 292 292 292 291 289 289 289 288 288 288 287 286
323 327 329 331 331 330 328 325 322 317 314 314 311 311 309 304 300 299 296 298 299 299 298 300 300 299 299 300 299 298 296 295 294 294 293 293 291 291 290 290 288 288 287
319 320 322 325 326 327 325 323 321 320 318 316 316 315 312 309 308 308 307 307 305 302 301 300 301 301 302 301 300 299 298 297 297 297 297 295 295 293 292 291 290 290 289
313 314 318 320 320 321 319 319 318 317 316 315 314 313 311 309 308 308 307 307 306 304 302 301 301 302 301 301 301 300 300 299 298 298 298 298 296 294 293 292 291 291 290
309 310 312 313 314 316 315 316 316 315 314 313 312 310 309 311 310 307 306 305 305 304 303 303 303 303 303 303 302 302 302 301 300 300 299 298 297 296 295 293 293 292 292
305 308 307 309 311 313 313 313 312 312 311 310 310 310 310 310 309 306 305 305 305 305 304 304 304 303 302 302 302 303 303 303 301 301 300 299 298 298 296 295 294 293 293
300 303 305 307 308 310 310 311 311 311 310 310 309 309 308 308 307 306 304 304 304 304 305 305 305 303 303 303 303 303 304 304 303 302 301 301 300 299 298 297 295 295 294
296 299 302 304 305 306 307 308 308 308 309 309 308 308 309 308 306 306 305 304 304 304 305 306 306 305 304 304 304 305 305 305 304 303 302 302 301 301 299 298 297 297 296
294 297 300 301 302 302 303 304 305 305 308 309 308 308 308 309 308 306 305 304 304 305 306 307 306 305 305 305 305 306 306 306 305 305 305 304 303 303 301 301 300 299 298
292 294 296 298 299 300 300 302 303 304 305 306 306 307 308 309 308 306 305 303 303 305 307 307 308 308 307 307 307 307 308 308 307 307 307 307 306 304 304 303 302 301 301
289 290 291 294 296 296 297 298 300 302 303 305 305 306 307 308 308 307 305 304 304 306 307 307 307 308 309 309 309 310 311 310 310 309 308 308 308 307 307 306 305 305 304
287 287 287 290 293 295 297 297 300 302 303 304 304 305 306 307 307 306 305 305 306 307 307 308 308 308 309 309 310 311 311 311 310 309 309 309 309 309 309 309 309 308 308
285 286 287 289 291 294 295 297 299 301 302 302 302 304 305 305 306 306 305 305 306 307 308 308 309 309 310 310 311 312 312 312 312 311 311 310 310 310 310 310 310 310 309
284 285 288 290 292 293 294 296 298 299 301 302 302 303 303 304 305 306 306 306 306 307 308 309 309 310 311 312 313 313 313 312 312 312 312 312 312 312 312 311 311 311 310
284 285 288 289 292 293 293 295 297 299 300 301 302 301 302 303 304 304 306 306 306 306 307 308 310 311 312 313 313 313 313 313 312 312 312 313 313 313 312 312 312 311 311
285 285 287 289 291 292 293 294 296 298 300 300 300 302 303 303 303 304 305 306 306 306 307 309 310 311 311 312 313 313 313 313 313 312 313 313 313 312 312 312 312 312 313
284 285 286 287 288 290 292 293 295 297 298 299 301 302 303 303 304 304 306 306 306 306 307 308 310 311 311 312 312 312 312 313 313 313 313 313 313 313 313 313 313 314 314
283 283 284 284 286 288 291 293 295 297 298 299 300 301 301 302 303 304 306 307 307 308 309 310 310 311 312 312 312 313 313 313 314 314 314 314 314 314 314 314 314 313 314
282 284 285 285 287 289 291 292 294 295 296 297 299 299 300 301 303 304 305 307 307 308 310 310 309 310 311 312 313 313 313 314 314 315 315 314 314 313 313 313 313 313 313
283 283 283 284 285 287 289 290 292 294 295 296 297 298 300 301 303 304 305 306 308 309 309 309 309 310 311 311 312 313 314 315 315 315 314 313 313 312 311 311 311 311 311
282 282 282 283 284 287 288 290 292 294 295 296 297 299 300 302 303 304 305 307 308 309 310 309 309 309 310 311 312 313 313 313 313 313 313 312 312 311 310 310 310 310 310
Height
5908 5906 5904 5902 5900 5898 5896 5895 5893 5891 5890 5889 5888 5887 5886 5885 5883 5883 5882 5881 5880 5880 5878 5877 5876 5875 5874 5872 5871 5870 5869 5867 5866 5864 5862 5861 5859 5857 5855 5853 5851 5849 5847
5908 5905 5903 5900 5898 5897 5895 5893 5891 5889 5888 5886 5885 5884 5883 5882 5881 5880 5878 5877 5877 5875 5874 5873 5871 5870 5869 5868 5866 5864 5863 5861 5860 5858 5856 5854 5852 5850 5848 5846 5844 5842 5840
5906 5904 5902 5899 5897 5895 5893 5891 5889 5888 5886 5885 5883 5882 5880 5879 5877 5876 5875 5874 5872 5871 5870 5868 5866 5865 5864 5862 5861 5859 5857 5855 5853 5851 5849 5847 5845 5843 5841 5839 5836 5834 5832
5905 5903 5900 5898 5895 5893 5891 5889 5887 5885 5884 5882 5880 5879 5877 5876 5874 5873 5871 5870 5868 5867 5865 5863 5861 5860 5858 5857 5855 5853 5851 5849 5847 5844 5842 5840 5838 5835 5833 5830 5828 5826 5823
5903 5901 5899 5896 5893 5891 5889 5887 5885 5883 5881 5879 5877 5875 5874 5872 5870 5869 5867 5865 5864 5862 5860 5858 5856 5854 5852 5850 5848 5846 5844 5841 5839 5837 5835 5832 5830 5828 5825 5822 5819 5817 5814
5901 5898 5896 5893 5891 5888 5886 5884 5882 5880 5878 5876 5874 5872 5870 5868 5866 5864 5862 5861 5859 5857 5855 5853 5851 5849 5847 5844 5842 5839 5837 5834 5832 5829 5827 5824 5821 5819 5816 5813 5811 5808 5805
5897 5895 5893 5890 5888 5886 5883 5881 5879 5876 5874 5872 5870 5868 5866 5863 5861 5859 5858 5856 5854 5852 5850 5848 5846 5843 5840 5838 5835 5832 5829 5827 5824 5822 5819 5816 5813 5810 5808 5805 5802 5799 5796
5894 5892 5890 5887 5885 5883 5880 5878 5875 5873 5871 5868 5866 5864 5861 5859 5857 5855 5853 5851 5849 5847 5844 5842 5839 5837 5834 5831 5828 5825 5822 5819 5816 5813 5810 5807 5804 5801 5799 5796 5793 5790 5786
5891 5889 5886 5884 5882 5880 5877 5874 5872 5869 5867 5864 5862 5859 5857 5855 5853 5851 5848 5846 5844 5841 5839 5836 5833 5830 5827 5824 5821 5818 5815 5812 5808 5805 5802 5799 5796 5793 5790 5787 5784 5780 5777
5887 5885 5883 5881 5878 5876 5873 5871 5868 5865 5862 5860 5857 5855 5852 5850 5848 5845 5843 5840 5838 5835 5832 5829 5826 5823 5820 5817 5814 5811 5808 5804 5801 5797 5794 5791 5788 5784 5781 5778 5774 5771 5767
5882 5880 5878 5876 5874 5871 5869 5866 5864 5861 5858 5856 5853 5850 5848 5845 5843 5840 5837 5835 5832 5829 5826 5823 5819 5816 5813 5810 5807 5804 5800 5797 5793 5790 5786 5783 5779 5776 5772 5769 5765 5761 5758
5877 5875 5873 5871 5869 5866 5864 5861 5859 5856 5853 5850 5848 5845 5843 5840 5837 5834 5831 5828 5825 5822 5819 5816 5813 5810 5806 5803 5800 5797 5793 5789 5786 5782 5778 5774 5771 5767 5763 5759 5755 5752 5748
5872 5869 5867 5865 5863 5861 5858 5856 5853 5850 5847 5845 5842 5839 5837 5834 5831 5828 5825 5822 5819 5816 5813 5809 5806 5803 5799 5796 5793 5789 5785 5781 5778 5774 5769 5766 5762 5758 5754 5750 5746 5742 5738
5865 5863 5861 5859 5857 5855 5852 5849 5847 5844 5842 5839 5836 5833 5830 5828 5824 5821 5818 5815 5812 5809 5806 5802 5799 5796 5792 5789 5785 5781 5777 5773 5769 5765 5761 5757 5753 5749 5744 5741 5737 5733 5729
5859 5857 5855 5853 5851 5848 5846 5843 5841 5838 5836 5833 5830 5827 5824 5821 5818 5814 5811 5808 5805 5802 5798 5795 5792 5789 5785 5781 5777 5773 5769 5765 5761 5757 5752 5748 5744 5740 5736 5732 5728 5724 5720
5852 5850 5848 5846 5844 5842 5839 5837 5834 5832 5829 5827 5824 5821 5818 5815 5811 5808 5805 5801 5798 5795 5792 5788 5785 5781 5777 5774 5769 5765 5761 5757 5753 5749 5745 5740 5736 5732 5728 5723 5719 5715 5711
5844 5842 5840 5838 5837 5834 5832 5830 5828 5825 5823 5820 5817 5814 5811 5808 5805 5801 5798 5795 5792 5788 5785 5781 5778 5774 5770 5766 5762 5758 5754 5750 5745 5741 5737 5733 5728 5724 5720 5716 5712 5708 5704
5836 5834 5833 5831 5829 5827 5825 5823 5821 5818 5816 5813 5810 5807 5804 5801 5798 5795 5791 5788 5785 5782 5778 5774 5770 5767 5763 5759 5755 5750 5746 5742 5738 5734 5730 5725 5721 5717 5713 5709 5706 5702 5697
5828 5826 5825 5823 5822 5820 5818 5816 5813 5811 5808 5806 5803 5800 5797 5794 5791 5788 5785 5782 5778 5775 5771 5767 5764 5760 5756 5752 5748 5743 5739 5735 5731 5727 5723 5719 5715 5711 5707 5703 5699 5695 5690
5820 5818 5817 5816 5814 5812 5811 5808 5806 5804 5801 5798 5796 5793 5790 5787 5784 5781 5778 5774 5771 5767 5764 5760 5756 5753 5749 5745 5741 5736 5732 5728 5724 5720 5716 5712 5708 5704 5700 5696 5692 5688 5684
5812 5810 5809 5808 5807 5805 5803 5801 5799 5797 5794 5791 5788 5786 5783 5780 5777 5774 5770 5767 5764 5760 5757 5753 5749 5745 5742 5738 5733 5729 5725 5721 5717 5713 5710 5706 5702 5698 5694 5689 5685 5681 5677
5803 5802 5801 5800 5799 5797 5795 5793 5791 5789 5786 5784 5781 5778 5775 5773 5770 5767 5763 5760 5756 5753 5749 5746 5742 5738 5734 5730 5726 5723 5719 5715 5711 5707 5703 5699 5695 5691 5687 5683 5679 5675 5671
5795 5794 5793 5792 5791 5789 5787 5786 5783 5781 5779 5776 5774 5771 5768 5766 5762 5759 5756 5753 5749 5746 5742 5739 5735 5731 5727 5723 5720 5716 5712 5708 5704 5700 5696 5692 5688 5684 5680 5676 5673 5669 5665
5788 5786 5785 5784 5783 5782 5780 5778 5776 5774 5772 5769 5767 5764 5761 5758 5755 5752 5749 5745 5742 5739 5735 5732 5728 5724 5721 5717 5713 5709 5705 5701 5698 5694 5690 5686 5682 5678 5674 5670 5667 5663 5659
5780 5779 5778 5777 5776 5774 5772 5771 5769 5767 5765 5762 5760 5757 5754 5751 5748 5745 5742 5739 5735 5732 5728 5724 5721 5717 5714 5710 5706 5703 5699 5695 5691 5687 5683 5679 5676 5672 5668 5664 5660 5657 5653
5772 5771 5770 5769 5768 5766 5764 5763 5761 5759 5757 5755 5753 5750 5747 5744 5741 5738 5735 5732 5728 5725 5721 5717 5714 5710 5707 5703 5700 5696 5692 5688 5684 5681 5677 5673 5669 5665 5661 5657 5654 5650 5646